Location: Newark
(18.8198°N, 82.1672°E)
Time: 17:53:27
(UTC+00:00)

N. Korean satellite - Visible Passes

Search period start: 24 August 2019 00:00
Search period end: 03 September 2019 00:00
Orbit: 457 x 507 km, 97.2° (Epoch: 23 August)

Date Brightness Start Highest point End Pass type
(mag) Time Alt. Az. Time Alt. Az. Time Alt. Az.
26 Aug 9.6 23:35:38 10° NE 23:37:57 17° E 23:40:13 10° SE visible
30 Aug 9.8 23:29:00 10° ENE 23:30:37 13° E 23:32:14 10° SE visible
02 Sep 9.1 23:45:39 10° NE 23:48:30 24° E 23:51:20 10° SSE visible
